Regional Weather Roundup
Issued by NWS

Home | Current Version | Previous Version | Graphics & Text | Print | Product List | Glossary On
Versions: 1 2 3 4 5 6 7 8 9 10 11 12 13 14 15 16 17 18 19 20 21 22 23 24 25 26 27 28 29 30 31 32 33 34 35 36 37 38 39 40 41 42 43 44 45 46 47 48 49 50
000
ASUS43 KLOT 151408
RWRIL

ILLINOIS REGIONAL WEATHER ROUNDUP
NATIONAL WEATHER SERVICE CHICAGO/ROMEOVILLE IL
800 AM CST FRI DEC 15 2017

NOTE: "FAIR" INDICATES FEW OR NO CLOUDS BELOW 12,000 FEET WITH NO
SIGNIFICANT WEATHER AND/OR OBSTRUCTIONS TO VISIBILITY.

* THESE STATIONS ARE NOT UNDER NWS QUALITY CONTROL. THEY ALSO MAY NOT
  REPORT WEATHER SUCH AS PRECIPITATION OR FOG.

ILZ001-002-007-009-015-016-024-151500-
NORTHWEST ILLINOIS

CITY           SKY/WX    TMP DP  RH WIND       PRES   REMARKS
MOLINE         CLOUDY    28  19  69 SW10      30.01S WCI  19
STERLING*      MOCLDY    24  18  77 W10       29.98R WCI  14
SAVANNA*       CLOUDY    25  18  72 W6        29.98S WCI  18
$$

ILZ003-004-008-010-011-017-018-151500-
NORTH CENTRAL ILLINOIS

CITY           SKY/WX    TMP DP  RH WIND       PRES   REMARKS
ROCKFORD       FLURRIES  26  15  63 W17       29.95R WCI  13
FREEPORT*      MOCLDY    24  16  73 W12G17    29.95S WCI  13
ROCHELLE*      CLOUDY    25  18  72 W16       29.96R WCI  13
DE KALB*       CLOUDY    26  16  66 W16       29.93R WCI  13
PERU*          MOCLDY    25  18  74 W16       29.99S WCI  12
$$

ILZ005-006-012>014-019>023-151500-
NORTHEAST ILLINOIS

CITY           SKY/WX    TMP DP  RH WIND       PRES   REMARKS
CHICAGO-OHARE  FLURRIES  26  17  68 W12       29.91S WCI  16
CHICAGO-MIDWAY FLURRIES  27  19  72 W12       29.93S WCI  17
AURORA         CLOUDY    26  17  68 W17G24    29.94R WCI  13
LANSING*       FLURRIES  27  21  79 W14       29.94S WCI  15
JOLIET*        CLOUDY    29  18  64 W12G23    29.95S WCI  19
WAUKEGAN       LGT SNOW  24  16  71 W9G17     29.89R WCI  14
DUPAGE AIRPORT CLOUDY    25  19  78 W14       29.92R WCI  13
KANKAKEE*      CLOUDY    28  19  71 W16       29.97S WCI  15
WHEELING       CLOUDY    26  17  68 W9G23     29.93R WCI  17
MORRIS*        CLOUDY    27  16  63 W22G28    29.95S WCI  13
ROMEOVILLE*    CLOUDY    26  20  77 W10       29.94S WCI  17
NORTHERLY ISL    N/A     26  18  71 SW12        N/A  WCI  16
$$

LMZ740>746-151500-
SOUTHERN LAKE MICHIGAN

STATION/POSITION SKY/WX   TEMP    WIND        PRES    VSBY  WAVE
                          AIR SEA DIR/SP/G                  HT/PER
                          (F)     (DEG/KT/KT) (MB)    (MI)  (FT/S)
HARRISON CRIB              27     280/ 19/ 22   N/A
BURNHAM HARBOR             27     280/  8/ 15   N/A
CALUMET HARBOR             26     240/  6/ 12 1012.8S
BURNS HARBOR               27     280/ 19/ 26 1013.9S
MICHIGAN CITY              27     260/ 33/ 36   N/A
$$

ILZ025>027-034>036-040-047-049-050-058-095>099-151500-
WEST-CENTRAL ILLINOIS

CITY           SKY/WX    TMP DP  RH WIND       PRES   REMARKS
QUINCY         CLOUDY    31  24  75 NW8       30.06S WCI  23
GALESBURG*     CLOUDY    26  24  91 W7        30.04R WCI  19
MACOMB*        CLEAR     26  22  85 W8        30.07R WCI  17
JACKSONVILLE*  CLOUDY    31  23  72 W9        30.07R WCI  23
PITTSFIELD*    CLOUDY    32  25  76 W6        30.08R WCI  27
$$

ILZ028>032-037-038-041>044-048-051>054-059>061-151500-
CENTRAL ILLINOIS

CITY           SKY/WX    TMP DP  RH WIND       PRES   REMARKS
PONTIAC        MOCLDY    28  22  78 W16       30.00R WCI  16
BLOOMINGTON    CLOUDY    27  22  81 W14       30.01R WCI  16
DECATUR        CLOUDY    28  21  75 W9        30.04R WCI  19
PEORIA         CLOUDY    28  22  78 W9        30.04R WCI  19
LACON*         CLOUDY    27  20  74 W8        30.02R WCI  19
LINCOLN*       CLOUDY    30  24  76 W5        30.04R WCI  25
SPRINGFIELD    CLOUDY    31  23  72 W9        30.06R WCI  23
TAYLORVILLE    CLOUDY    29  22  73 W8        30.06R WCI  21
$$

ILZ033-039-045-046-055>057-062-063-151500-
EAST-CENTRAL ILLINOIS

CITY           SKY/WX    TMP DP  RH WIND       PRES   REMARKS
CHAMPAIGN      CLOUDY    27  20  75 SW13      30.02S WCI  16
DANVILLE*      CLOUDY    26  19  76 SW12      29.98S WCI  15
RANTOUL*       CLOUDY    29  22  75 W14       30.00S WCI  19
MATTOON        CLOUDY    27  20  75 SW8       30.03F WCI  19
PARIS*         CLOUDY    26  21  79 SW9       30.04F WCI  17
$$

ILZ079-100>102-151500-
SOUTHWEST ILLINOIS

CITY           SKY/WX    TMP DP  RH WIND       PRES   REMARKS
ALTON          CLOUDY    30  25  80 SW6       30.09F WCI  24
BELLEVILLE     MOCLDY    29  21  72 SW7       30.09F WCI  21
CAHOKIA*       CLOUDY    31  21  66 SW6       30.11S WCI  25
SPARTA*        PTCLDY    29  23  77 SW6       30.13S WCI  23
$$

ILZ064>066-069>071-074>076-080>082-084>086-088>090-092>094-151500-
SOUTH-CENTRAL ILLINOIS

CITY           SKY/WX    TMP DP  RH WIND       PRES   REMARKS
CARBONDALE     CLEAR     27  22  81 SW7       30.14S WCI  19
CAIRO*         CLOUDY    32  24  73 SW5       30.19R WCI  27
EFFINGHAM*     CLOUDY    29  22  77 SW7       30.09S WCI  22
MARION         PTCLDY    34  21  60 W6        30.15R WCI  29
MT. VERNON     PTCLDY    28  23  81 W5        30.12R WCI  23
CENTRALIA*     CLOUDY    30  24  77 SW7       30.10R WCI  23
SALEM*         CLOUDY    31  22  72 SW7       30.10R WCI  24
METROPOLIS*    CLOUDY    32  22  67 W3        30.19R
$$

ILZ067-068-072-073-078-083-087-091-151500-
SOUTHEAST ILLINOIS

CITY           SKY/WX    TMP DP  RH WIND       PRES   REMARKS
LAWRENCEVILLE  CLEAR     28  19  69 SW5       30.09F WCI  23
FLORA*         PTCLDY    30  22  73 SW7       30.10R WCI  23
FAIRFIELD*     CLEAR     29  21  72 SW3       30.10S
HARRISBURG*    MOCLDY    30  22  72 SW6       30.15S WCI  24
ROBINSON*      PTCLDY    27  20  76 W9        30.09S WCI  18
CARMI*         PTCLDY    29  22  74 W6        30.12S WCI  23
$$

ABBREVIATIONS USED IN REMARKS
   TC - TEMPERATURE IN CELSIUS
  WCI - WIND CHILL INDEX
   HX - HEAT INDEX
  VSB - VISIBILITY
$$





USA.gov is the U.S. government's official web portal to all federal, state and local government web resources and services.